Tracking 27423 objects as of 9-Jun-2023
HD Live streaming from Space Station
objects crossing your sky now

LEMUR 2 LYNSEY-SYMO

Track LEMUR 2 LYNSEY-SYMO now!
10-day predictions
LEMUR 2 LYNSEY-SYMO is classified as:


NORAD ID: 42779
Int'l Code: 2017-036Q
Perigee: 308.8 km
Apogee: 319.4 km
Inclination: 97.1 °
Period: 90.7 minutes
Semi major axis: 6685 km
RCS: Unknown
Launch date: June 23, 2017
Source: United States (US)
Launch site: SRIHARIKOTA (SRI)
Your satellite tracking list
Your tracking list is empty




NASA's NSSDC Master Catalog

Two Line Element Set (TLE):
1 42779U 17036Q   23159.12343163  .00471399  84059-4  17227-2 0  9993
2 42779  97.1257 207.1016 0007913 184.7738 175.3461 15.88326899332203
Source of the keplerian elements: AFSPC